Location: Châteauvieux
(47.2310°N, 1.3828°E)
Time: 23:28:17
(UTC+00:00)

Cosmos 2237 Rocket - Pass Details

Date: 15 May 2026
Orbit: 834 x 849 km, 71.0° (Epoch: 11 June)

Event Time Altitude Azimuth Distance (km) Brightness Sun altitude
Rises 22:36:07 0° 337° (NNW) 3,420 6.9 -21.6°
Reaches altitude 10° 22:38:49 10° 346° (NNW) 2,479 5.8 -21.8°
Maximum altitude 22:43:58 34° 51° (NE) 1,365 3.4 -22.0°
Enters shadow 22:46:56 21° 101° (E) 1,810 3.7 -22.2°
